Time,TemperatureF,DewpointF,PressureIn,WindDirection,WindDirectionDegrees,WindSpeedMPH,WindSpeedGustMPH,Humidity,HourlyPrecipIn,Conditions,Clouds,dailyrainin,SolarRadiationWatts/m^2,SoftwareType,DateUTC
2013-11-11 00:00:00,37.2,31.9,30.01,WNW,292,7.0,11.5,81,0.01,RA,,0.00,0.0,WeatherDisplay:10.37,2013-11-11 05:00:00,
2013-11-11 00:01:00,37.2,31.9,30.01,WNW,296,6.1,9.2,81,0.01,RA,,0.00,0.0,WeatherDisplay:10.37,2013-11-11 05:01:00,
2013-11-11 00:02:00,37.2,31.9,30.01,WNW,286,5.5,9.2,81,0.01,RA,,0.00,0.0,WeatherDisplay:10.37,2013-11-11 05:02:00,
2013-11-11 00:07:00,37.4,31.8,30.02,WNW,296,5.7,9.2,80,0.01,RA,,0.00,0.0,WeatherDisplay:10.37,2013-11-11 05:07:00,
2013-11-11 00:12:00,37.4,32.1,30.01,WNW,291,5.8,8.0,81,0.01,CLR,,0.00,0.0,WeatherDisplay:10.37,2013-11-11 05:12:00,
2013-11-11 00:17:00,37.5,31.9,30.02,WNW,296,6.9,8.1,80,0.01,CLR,,0.00,0.0,WeatherDisplay:10.37,2013-11-11 05:17:00,
2013-11-11 00:22:00,37.5,32.2,30.01,WNW,291,9.1,9.1,81,0.01,CLR,,0.00,0.0,WeatherDisplay:10.37,2013-11-11 05:22:00,
2013-11-11 00:27:00,37.5,31.9,30.02,WNW,300,6.7,11.5,80,0.01,CLR,,0.00,0.0,WeatherDisplay:10.37,2013-11-11 05:27:00,
2013-11-11 00:32:00,37.5,31.9,30.02,WNW,302,4.7,8.1,80,0.01,CLR,,0.00,0.0,WeatherDisplay:10.37,2013-11-11 05:32:00,
2013-11-11 00:37:00,37.7,31.8,30.02,WNW,303,6.1,9.2,79,0.01,CLR,,0.00,0.0,WeatherDisplay:10.37,2013-11-11 05:37:00,
2013-11-11 00:42:00,37.9,31.3,30.03,NW,304,5.2,8.1,77,0.01,CLR,,0.00,0.0,WeatherDisplay:10.37,2013-11-11 05:42:00,
2013-11-11 00:47:00,38.2,31.0,30.02,WNW,300,13.9,18.0,75,0.00,CLR,,0.00,0.0,WeatherDisplay:10.37,2013-11-11 05:47:00,
2013-11-11 00:52:00,38.3,30.7,30.03,NW,306,7.5,13.8,74,0.00,CLR,,0.00,0.0,WeatherDisplay:10.37,2013-11-11 05:52:00,
2013-11-11 00:57:00,38.5,30.6,30.03,West,281,8.8,13.8,73,0.00,CLR,,0.00,0.0,WeatherDisplay:10.37,2013-11-11 05:57:00,
2013-11-11 01:02:00,38.6,30.4,30.03,WNW,283,9.3,16.1,72,0.00,CLR,,0.00,0.0,WeatherDisplay:10.37,2013-11-11 06:02:00,
2013-11-11 01:07:00,38.7,30.4,30.03,WNW,298,11.5,12.7,72,0.00,CLR,,0.00,0.0,WeatherDisplay:10.37,2013-11-11 06:07:00,
2013-11-11 01:12:00,38.8,30.9,30.03,WNW,297,4.7,11.5,73,0.00,CLR,,0.00,0.0,WeatherDisplay:10.37,2013-11-11 06:12:00,
2013-11-11 01:17:00,38.7,30.8,30.03,NW,311,8.5,18.4,73,0.00,CLR,,0.00,0.0,WeatherDisplay:10.37,2013-11-11 06:17:00,
2013-11-11 01:22:00,38.7,30.4,30.04,WNW,302,9.0,11.5,72,0.00,CLR,,0.00,0.0,WeatherDisplay:10.37,2013-11-11 06:22:00,
2013-11-11 01:27:00,38.7,30.1,30.04,NW,306,7.8,10.4,71,0.00,CLR,,0.00,0.0,WeatherDisplay:10.37,2013-11-11 06:27:00,
2013-11-11 01:32:00,38.8,30.2,30.04,WNW,291,6.0,13.8,71,0.00,CLR,,0.00,0.0,WeatherDisplay:10.37,2013-11-11 06:32:00,
2013-11-11 01:37:00,38.8,29.8,30.04,NW,306,5.6,15.0,70,0.00,CLR,,0.00,0.0,WeatherDisplay:10.37,2013-11-11 06:37:00,
2013-11-11 01:42:00,38.9,30.3,30.04,NW,306,9.2,12.0,71,0.00,CLR,,0.00,0.0,WeatherDisplay:10.37,2013-11-11 06:42:00,
2013-11-11 01:48:00,38.8,30.2,30.05,NW,309,4.9,6.9,71,0.00,CLR,,0.00,0.0,WeatherDisplay:10.37,2013-11-11 06:48:00,
2013-11-11 01:53:00,38.8,30.5,30.05,WNW,303,5.2,8.1,72,0.00,CLR,,0.00,0.0,WeatherDisplay:10.37,2013-11-11 06:53:00,
2013-11-11 01:58:00,38.7,30.1,30.05,WNW,296,7.3,14.0,71,0.00,CLR,,0.00,0.0,WeatherDisplay:10.37,2013-11-11 06:58:00,
2013-11-11 02:03:00,38.7,30.4,30.05,WNW,300,7.2,13.8,72,0.00,CLR,,0.00,0.0,WeatherDisplay:10.37,2013-11-11 07:03:00,
2013-11-11 02:08:00,38.6,30.4,30.05,WNW,290,5.9,11.5,72,0.00,CLR,,0.00,0.0,WeatherDisplay:10.37,2013-11-11 07:08:00,
2013-11-11 02:13:00,38.6,30.4,30.06,NW,308,6.4,10.4,72,0.00,CLR,,0.00,0.0,WeatherDisplay:10.37,2013-11-11 07:13:00,
2013-11-11 02:18:00,38.6,30.0,30.06,WNW,288,5.9,8.1,71,0.00,CLR,,0.00,0.0,WeatherDisplay:10.37,2013-11-11 07:18:00,
2013-11-11 02:23:00,38.7,30.4,30.06,WNW,301,6.7,8.1,72,0.00,CLR,,0.00,0.0,WeatherDisplay:10.37,2013-11-11 07:23:00,
2013-11-11 02:28:00,38.7,30.4,30.06,WNW,297,5.1,7.0,72,0.00,CLR,,0.00,0.0,WeatherDisplay:10.37,2013-11-11 07:28:00,
2013-11-11 02:33:00,38.7,30.4,30.06,NW,307,4.8,8.1,72,0.00,CLR,,0.00,0.0,WeatherDisplay:10.37,2013-11-11 07:33:00,
2013-11-11 02:38:00,38.7,30.8,30.06,NW,304,5.7,8.1,73,0.00,CLR,,0.00,0.0,WeatherDisplay:10.37,2013-11-11 07:38:00,
2013-11-11 02:43:00,38.7,30.1,30.06,WNW,293,6.6,10.4,71,0.00,CLR,,0.00,0.0,WeatherDisplay:10.37,2013-11-11 07:43:00,
2013-11-11 02:48:00,38.7,30.4,30.07,WNW,301,5.6,6.9,72,0.00,CLR,,0.00,0.0,WeatherDisplay:10.37,2013-11-11 07:48:00,
2013-11-11 02:53:00,38.6,30.4,30.07,WNW,282,6.5,10.0,72,0.00,CLR,,0.00,0.0,WeatherDisplay:10.37,2013-11-11 07:53:00,
2013-11-11 02:58:00,38.6,30.0,30.07,WNW,300,5.3,11.5,71,0.00,CLR,,0.00,0.0,WeatherDisplay:10.37,2013-11-11 07:58:00,
2013-11-11 03:03:00,38.7,30.4,30.07,WNW,297,6.0,9.2,72,0.00,CLR,,0.00,0.0,WeatherDisplay:10.37,2013-11-11 08:03:00,
2013-11-11 03:08:00,38.6,30.0,30.07,NW,315,4.3,6.9,71,0.00,CLR,,0.00,0.0,WeatherDisplay:10.37,2013-11-11 08:08:00,
2013-11-11 03:13:00,38.7,29.4,30.07,NNW,329,3.4,4.6,69,0.00,CLR,,0.00,0.0,WeatherDisplay:10.37,2013-11-11 08:13:00,
2013-11-11 03:18:00,38.8,29.1,30.07,WNW,298,5.0,8.1,68,0.00,CLR,,0.00,0.0,WeatherDisplay:10.37,2013-11-11 08:18:00,
2013-11-11 03:23:00,38.8,29.8,30.07,West,275,4.2,7.0,70,0.00,CLR,,0.00,0.0,WeatherDisplay:10.37,2013-11-11 08:23:00,
2013-11-11 03:28:00,38.8,29.8,30.07,WNW,296,5.8,8.1,70,0.00,CLR,,0.00,0.0,WeatherDisplay:10.37,2013-11-11 08:28:00,
2013-11-11 03:33:00,38.8,29.1,30.07,NW,305,4.2,6.9,68,0.00,CLR,,0.00,0.0,WeatherDisplay:10.37,2013-11-11 08:33:00,
2013-11-11 03:38:00,38.8,29.5,30.07,NW,306,5.8,9.2,69,0.00,CLR,,0.00,0.0,WeatherDisplay:10.37,2013-11-11 08:38:00,
2013-11-11 03:43:00,38.8,29.1,30.07,NW,305,5.5,6.9,68,0.00,CLR,,0.00,0.0,WeatherDisplay:10.37,2013-11-11 08:43:00,
2013-11-11 03:48:00,38.8,29.5,30.07,NW,309,4.9,6.9,69,0.00,CLR,,0.00,0.0,WeatherDisplay:10.37,2013-11-11 08:48:00,
2013-11-11 03:53:00,38.8,29.5,30.08,WNW,301,4.0,4.6,69,0.00,CLR,,0.00,0.0,WeatherDisplay:10.37,2013-11-11 08:53:00,
2013-11-11 04:07:00,38.8,29.1,30.09,WNW,297,5.0,6.9,68,0.00,CLR,,0.00,0.0,WeatherDisplay:10.37,2013-11-11 09:07:00,
2013-11-11 04:42:00,38.7,29.0,30.09,NNW,327,6.8,9.2,68,0.00,CLR,,0.00,0.0,WeatherDisplay:10.37,2013-11-11 09:42:00,
2013-11-11 04:47:00,38.7,29.0,30.09,WNW,296,5.7,9.2,68,0.00,CLR,,0.00,0.0,WeatherDisplay:10.37,2013-11-11 09:47:00,
2013-11-11 04:52:00,38.7,29.4,30.10,WNW,292,2.7,4.6,69,0.00,CLR,,0.00,0.0,WeatherDisplay:10.37,2013-11-11 09:52:00,
2013-11-11 04:57:00,38.6,29.7,30.10,WNW,292,3.8,4.6,70,0.00,CLR,,0.00,0.0,WeatherDisplay:10.37,2013-11-11 09:57:00,
2013-11-11 05:02:00,38.5,29.6,30.10,WNW,295,4.0,7.0,70,0.00,CLR,,0.00,0.0,WeatherDisplay:10.37,2013-11-11 10:02:00,
2013-11-11 05:07:00,38.4,29.5,30.11,WNW,296,4.2,4.6,70,0.00,CLR,,0.00,0.0,WeatherDisplay:10.37,2013-11-11 10:07:00,
2013-11-11 05:12:00,38.4,29.5,30.11,WNW,296,2.9,6.0,70,0.00,CLR,,0.00,0.0,WeatherDisplay:10.37,2013-11-11 10:12:00,
2013-11-11 05:17:00,38.4,29.8,30.11,WNW,296,0.6,3.0,71,0.00,CLR,,0.00,0.0,WeatherDisplay:10.37,2013-11-11 10:17:00,
2013-11-11 05:22:00,38.3,29.4,30.11,WNW,296,1.9,3.5,70,0.00,CLR,,0.00,0.0,WeatherDisplay:10.37,2013-11-11 10:22:00,
2013-11-11 05:27:00,38.3,28.7,30.11,WNW,296,0.0,0.0,68,0.00,CLR,,0.00,0.0,WeatherDisplay:10.37,2013-11-11 10:27:00,
2013-11-11 05:33:00,38.3,29.0,30.11,WNW,296,0.9,1.2,69,0.00,CLR,,0.00,0.0,WeatherDisplay:10.37,2013-11-11 10:33:00,
2013-11-11 05:38:00,38.3,29.0,30.11,WNW,296,0.0,0.0,69,0.00,CLR,,0.00,0.0,WeatherDisplay:10.37,2013-11-11 10:38:00,
2013-11-11 05:43:00,38.3,30.7,30.11,WNW,296,2.6,3.5,74,0.00,CLR,,0.00,0.0,WeatherDisplay:10.37,2013-11-11 10:43:00,
2013-11-11 05:48:00,38.2,29.3,30.11,WNW,296,3.5,4.6,70,0.00,CLR,,0.00,0.0,WeatherDisplay:10.37,2013-11-11 10:48:00,
2013-11-11 05:53:00,38.2,29.3,30.12,WNW,296,3.5,4.0,70,0.00,CLR,,0.00,0.0,WeatherDisplay:10.37,2013-11-11 10:53:00,
2013-11-11 05:58:00,38.3,29.4,30.12,WNW,296,5.4,6.9,70,0.00,CLR,,0.00,0.0,WeatherDisplay:10.37,2013-11-11 10:58:00,
2013-11-11 06:03:00,38.2,28.9,30.12,WNW,283,6.9,9.2,69,0.00,CLR,,0.00,0.0,WeatherDisplay:10.37,2013-11-11 11:03:00,
2013-11-11 06:08:00,38.3,29.4,30.12,WNW,290,6.3,8.1,70,0.00,CLR,,0.00,0.0,WeatherDisplay:10.37,2013-11-11 11:08:00,
2013-11-11 06:13:00,38.2,29.3,30.12,WNW,299,5.9,9.2,70,0.00,CLR,,0.00,0.0,WeatherDisplay:10.37,2013-11-11 11:13:00,
2013-11-11 06:18:00,37.9,28.6,30.12,WNW,296,5.1,8.1,69,0.00,CLR,,0.00,0.0,WeatherDisplay:10.37,2013-11-11 11:18:00,
2013-11-11 06:23:00,37.7,28.4,30.13,WNW,295,3.9,4.6,69,0.00,CLR,,0.00,0.0,WeatherDisplay:10.37,2013-11-11 11:23:00,
2013-11-11 06:28:00,37.5,28.2,30.13,WNW,290,4.0,5.0,69,0.00,CLR,,0.00,0.0,WeatherDisplay:10.37,2013-11-11 11:28:00,
2013-11-11 06:33:00,37.5,28.2,30.14,WNW,290,3.5,4.6,69,0.00,CLR,,0.00,0.0,WeatherDisplay:10.37,2013-11-11 11:33:00,
2013-11-11 06:38:00,37.4,28.2,30.14,WNW,291,3.6,4.6,69,0.00,CLR,,0.00,0.0,WeatherDisplay:10.37,2013-11-11 11:38:00,
2013-11-11 06:43:00,37.3,27.7,30.13,WNW,294,4.8,5.8,68,0.00,CLR,,0.00,0.0,WeatherDisplay:10.37,2013-11-11 11:43:00,
2013-11-11 06:48:00,37.1,27.9,30.14,WNW,294,4.6,6.9,69,0.00,CLR,,0.00,5.7,WeatherDisplay:10.37,2013-11-11 11:48:00,
2013-11-11 06:53:00,36.8,27.6,30.13,WNW,292,5.7,6.9,69,0.00,CLR,,0.00,10.2,WeatherDisplay:10.37,2013-11-11 11:53:00,
2013-11-11 06:58:00,36.5,27.3,30.13,WNW,291,5.3,6.9,69,0.00,OVC,,0.00,12.4,WeatherDisplay:10.37,2013-11-11 11:58:00,
2013-11-11 07:03:00,36.4,27.2,30.13,WNW,300,4.6,5.8,69,0.00,OVC,,0.00,13.6,WeatherDisplay:10.37,2013-11-11 12:03:00,
2013-11-11 07:08:00,36.3,27.4,30.13,WNW,298,5.7,9.2,70,0.00,OVC,,0.00,18.1,WeatherDisplay:10.37,2013-11-11 12:08:00,
2013-11-11 07:13:00,36.1,27.3,30.14,WNW,292,6.8,10.4,70,0.00,OVC,,0.00,20.3,WeatherDisplay:10.37,2013-11-11 12:13:00,
2013-11-11 07:18:00,36.2,27.4,30.14,WNW,297,4.7,5.8,70,0.00,OVC,,0.00,61.0,WeatherDisplay:10.37,2013-11-11 12:18:00,
2013-11-11 07:23:00,36.4,27.5,30.15,WNW,301,1.9,3.5,70,0.00,OVC,,0.00,79.1,WeatherDisplay:10.37,2013-11-11 12:23:00,
2013-11-11 07:28:00,36.8,27.6,30.15,WNW,299,1.2,2.3,69,0.00,OVC,,0.00,89.3,WeatherDisplay:10.37,2013-11-11 12:28:00,
2013-11-11 07:33:00,37.3,28.1,30.15,WNW,299,0.9,2.3,69,0.00,OVC,,0.00,97.2,WeatherDisplay:10.37,2013-11-11 12:33:00,
2013-11-11 07:38:00,37.7,28.1,30.15,WNW,299,2.8,3.5,68,0.00,OVC,,0.00,141.3,WeatherDisplay:10.37,2013-11-11 12:38:00,
2013-11-11 07:43:00,38.0,28.4,30.15,WNW,297,3.7,4.6,68,0.00,OVC,,0.00,168.4,WeatherDisplay:10.37,2013-11-11 12:43:00,
2013-11-11 07:48:00,38.3,29.0,30.15,WNW,297,2.4,3.5,69,0.00,BKN,,0.00,186.4,WeatherDisplay:10.37,2013-11-11 12:48:00,
2013-11-11 07:53:00,38.7,29.0,30.15,WNW,292,3.5,6.0,68,0.00,CLR,,0.00,193.2,WeatherDisplay:10.37,2013-11-11 12:53:00,
2013-11-11 07:58:00,39.0,29.3,30.15,WNW,289,5.1,6.9,68,0.00,CLR,,0.00,209.1,WeatherDisplay:10.37,2013-11-11 12:58:00,
2013-11-11 08:03:00,39.1,29.1,30.15,West,269,4.6,5.8,67,0.00,CLR,,0.00,224.9,WeatherDisplay:10.37,2013-11-11 13:03:00,
2013-11-11 08:08:00,39.4,29.3,30.16,WNW,290,4.2,6.9,67,0.00,CLR,,0.00,57.6,WeatherDisplay:10.37,2013-11-11 13:08:00,
2013-11-11 08:13:00,39.5,29.4,30.16,WNW,289,4.0,6.9,67,0.00,CLR,,0.00,258.8,WeatherDisplay:10.37,2013-11-11 13:13:00,
2013-11-11 08:18:00,39.8,29.7,30.16,WNW,300,6.2,8.1,67,0.00,CLR,,0.00,266.7,WeatherDisplay:10.37,2013-11-11 13:18:00,
2013-11-11 08:23:00,40.2,29.7,30.16,West,272,4.5,8.1,66,0.00,CLR,,0.00,139.0,WeatherDisplay:10.37,2013-11-11 13:23:00,
2013-11-11 08:28:00,40.1,29.3,30.16,WNW,300,4.9,6.9,65,0.00,CLR,,0.00,107.3,WeatherDisplay:10.37,2013-11-11 13:28:00,
2013-11-11 08:33:00,39.8,28.6,30.16,WSW,256,5.2,6.9,64,0.00,CLR,,0.00,107.3,WeatherDisplay:10.37,2013-11-11 13:33:00,
2013-11-11 08:38:00,39.6,29.2,30.17,WNW,294,4.4,5.0,66,0.00,CLR,,0.00,341.3,WeatherDisplay:10.37,2013-11-11 13:38:00,
2013-11-11 08:43:00,39.8,29.4,30.17,WNW,294,2.8,3.5,66,0.00,CLR,,0.00,357.1,WeatherDisplay:10.37,2013-11-11 13:43:00,
2013-11-11 08:48:00,40.2,29.7,30.17,WNW,294,2.5,4.6,66,0.00,CLR,,0.00,188.7,WeatherDisplay:10.37,2013-11-11 13:48:00,
2013-11-11 08:53:00,40.3,29.5,30.17,WNW,298,6.0,9.0,65,0.00,CLR,,0.00,335.6,WeatherDisplay:10.37,2013-11-11 13:53:00,
2013-11-11 08:58:00,40.8,29.6,30.17,WNW,299,2.6,3.5,64,0.00,CLR,,0.00,488.2,WeatherDisplay:10.37,2013-11-11 13:58:00,
2013-11-11 09:03:00,41.4,30.5,30.17,WNW,299,3.8,4.0,65,0.00,CLR,,0.00,536.8,WeatherDisplay:10.37,2013-11-11 14:03:00,
2013-11-11 09:08:00,42.0,31.1,30.16,NW,304,4.8,8.1,65,0.00,CLR,,0.00,490.4,WeatherDisplay:10.37,2013-11-11 14:08:00,
2013-11-11 09:13:00,42.1,30.0,30.16,WNW,300,2.3,6.9,62,0.00,CLR,,0.00,280.2,WeatherDisplay:10.37,2013-11-11 14:13:00,
2013-11-11 09:18:00,42.1,31.2,30.16,WNW,292,4.8,6.0,65,0.00,CLR,,0.00,282.5,WeatherDisplay:10.37,2013-11-11 14:18:00,
2013-11-11 09:23:00,42.0,30.7,30.16,WNW,300,4.3,8.1,64,0.00,FEW,,0.00,240.7,WeatherDisplay:10.37,2013-11-11 14:23:00,
2013-11-11 09:28:00,41.9,30.6,30.17,WNW,303,7.6,9.2,64,0.00,FEW,,0.00,204.5,WeatherDisplay:10.37,2013-11-11 14:28:00,
2013-11-11 09:33:00,41.8,30.5,30.16,WNW,289,0.9,3.5,64,0.00,SCT,,0.00,184.2,WeatherDisplay:10.37,2013-11-11 14:33:00,
2013-11-11 09:38:00,41.5,30.2,30.16,WNW,289,4.0,4.0,64,0.00,SCT,,0.00,298.3,WeatherDisplay:10.37,2013-11-11 14:38:00,
2013-11-11 09:43:00,41.7,31.2,30.16,WNW,289,3.0,3.5,66,0.00,CLR,,0.00,424.9,WeatherDisplay:10.37,2013-11-11 14:43:00,
2013-11-11 09:48:00,42.5,31.9,30.15,WNW,290,2.1,4.6,66,0.00,CLR,,0.00,576.3,WeatherDisplay:10.37,2013-11-11 14:48:00,
2013-11-11 09:53:00,43.3,31.1,30.15,NW,322,2.8,3.5,62,0.00,CLR,,0.00,383.1,WeatherDisplay:10.37,2013-11-11 14:53:00,
2013-11-11 09:58:00,43.4,31.6,30.15,WNW,299,4.5,5.8,63,0.00,CLR,,0.00,409.1,WeatherDisplay:10.37,2013-11-11 14:58:00,
2013-11-11 10:03:00,43.8,32.4,30.15,WNW,299,3.6,4.6,64,0.00,CLR,,0.00,409.1,WeatherDisplay:10.37,2013-11-11 15:03:00,
2013-11-11 10:09:00,43.8,31.6,30.15,WNW,299,3.6,5.8,62,0.00,CLR,,0.00,363.9,WeatherDisplay:10.37,2013-11-11 15:09:00,
2013-11-11 10:14:00,43.1,31.0,30.15,WNW,299,2.4,3.5,62,0.00,FEW,,0.00,275.7,WeatherDisplay:10.37,2013-11-11 15:14:00,
2013-11-11 10:19:00,42.6,30.5,30.15,WNW,292,2.3,3.5,62,0.00,SCT,,0.00,293.8,WeatherDisplay:10.37,2013-11-11 15:19:00,
2013-11-11 10:24:00,42.3,30.6,30.15,WNW,292,1.4,2.3,63,0.00,FEW,,0.00,298.3,WeatherDisplay:10.37,2013-11-11 15:24:00,
2013-11-11 10:29:00,42.4,31.1,30.14,WNW,292,3.2,4.6,64,0.00,CLR,,0.00,311.9,WeatherDisplay:10.37,2013-11-11 15:29:00,
2013-11-11 10:34:00,42.6,31.3,30.15,WNW,292,0.2,2.3,64,0.00,FEW,,0.00,222.6,WeatherDisplay:10.37,2013-11-11 15:34:00,
2013-11-11 10:39:00,42.8,30.7,30.15,WNW,292,2.8,3.0,62,0.00,SCT,,0.00,183.1,WeatherDisplay:10.37,2013-11-11 15:39:00,
2013-11-11 10:44:00,42.7,30.6,30.14,WNW,292,2.5,4.6,62,0.00,BKN,,0.00,217.0,WeatherDisplay:10.37,2013-11-11 15:44:00,
2013-11-11 10:49:00,42.3,30.2,30.13,WNW,292,0.0,0.0,62,0.00,SCT,,0.00,262.2,WeatherDisplay:10.37,2013-11-11 15:49:00,
2013-11-11 10:54:00,42.4,31.1,30.13,WNW,292,0.1,0.0,64,0.00,SCT,,0.00,238.4,WeatherDisplay:10.37,2013-11-11 15:54:00,
2013-11-11 10:59:00,42.6,31.7,30.12,WNW,292,2.3,3.5,65,0.00,SCT,,0.00,314.1,WeatherDisplay:10.37,2013-11-11 15:59:00,
2013-11-11 11:04:00,42.9,31.6,30.12,WNW,293,2.8,3.5,64,0.00,CLR,,0.00,528.8,WeatherDisplay:10.37,2013-11-11 16:04:00,
2013-11-11 11:09:00,43.2,31.4,30.12,WNW,291,3.1,3.5,63,0.00,CLR,,0.00,673.5,WeatherDisplay:10.37,2013-11-11 16:09:00,
2013-11-11 11:14:00,43.4,31.2,30.12,SW,226,0.7,2.3,62,0.00,FEW,,0.00,345.8,WeatherDisplay:10.37,2013-11-11 16:14:00,
2013-11-11 11:19:00,43.4,30.8,30.11,SW,229,2.5,3.5,61,0.00,SCT,,0.00,291.5,WeatherDisplay:10.37,2013-11-11 16:19:00,
2013-11-11 11:24:00,43.4,32.0,30.11,SW,229,2.3,5.0,64,0.00,SCT,,0.00,340.1,WeatherDisplay:10.37,2013-11-11 16:24:00,
2013-11-11 11:29:00,43.3,30.7,30.10,SW,229,1.9,3.5,61,0.00,FEW,,0.00,395.5,WeatherDisplay:10.37,2013-11-11 16:29:00,
2013-11-11 11:34:00,43.3,31.9,30.10,SW,228,0.3,2.3,64,0.00,SCT,,0.00,307.4,WeatherDisplay:10.37,2013-11-11 16:34:00,
2013-11-11 11:39:00,43.5,31.3,30.10,SW,232,3.0,3.5,62,0.00,FEW,,0.00,476.9,WeatherDisplay:10.37,2013-11-11 16:39:00,
2013-11-11 11:44:00,44.2,32.4,30.09,SW,233,2.1,3.5,63,0.00,CLR,,0.00,518.7,WeatherDisplay:10.37,2013-11-11 16:44:00,
2013-11-11 11:49:00,44.6,32.0,30.09,SW,219,0.5,6.0,61,0.00,SCT,,0.00,558.2,WeatherDisplay:10.37,2013-11-11 16:49:00,
2013-11-11 11:54:00,45.5,33.2,30.08,West,261,3.4,6.0,62,0.00,CLR,,0.00,605.7,WeatherDisplay:10.37,2013-11-11 16:54:00,
2013-11-11 11:59:00,46.3,32.7,30.08,West,269,3.0,3.5,59,0.00,CLR,,0.00,615.9,WeatherDisplay:10.37,2013-11-11 16:59:00,
2013-11-11 12:04:00,46.6,33.0,30.08,SW,220,5.9,9.2,59,0.00,CLR,,0.00,579.7,WeatherDisplay:10.37,2013-11-11 17:04:00,
2013-11-11 12:09:00,46.5,32.5,30.07,WSW,252,4.3,5.8,58,0.00,CLR,,0.00,584.2,WeatherDisplay:10.37,2013-11-11 17:09:00,
2013-11-11 12:14:00,46.5,32.5,30.07,West,265,1.6,5.0,58,0.00,FEW,,0.00,663.3,WeatherDisplay:10.37,2013-11-11 17:14:00,
2013-11-11 12:19:00,46.3,32.3,30.07,West,273,5.9,6.9,58,0.00,SCT,,0.00,359.3,WeatherDisplay:10.37,2013-11-11 17:19:00,
2013-11-11 12:24:00,46.1,32.1,30.07,West,265,5.4,7.0,58,0.00,SCT,,0.00,309.6,WeatherDisplay:10.37,2013-11-11 17:24:00,
2013-11-11 12:29:00,45.9,32.4,30.06,West,264,3.6,4.6,59,0.00,SCT,,0.00,258.8,WeatherDisplay:10.37,2013-11-11 17:29:00,
2013-11-11 12:34:00,45.7,31.8,30.06,West,264,3.1,4.6,58,0.00,BKN,,0.00,218.1,WeatherDisplay:10.37,2013-11-11 17:34:00,
2013-11-11 12:39:00,45.4,32.3,30.06,West,263,1.3,3.5,60,0.00,SCT,,0.00,357.1,WeatherDisplay:10.37,2013-11-11 17:39:00,
2013-11-11 12:44:00,45.8,32.3,30.05,SSW,207,2.7,3.5,59,0.00,CLR,,0.00,537.9,WeatherDisplay:10.37,2013-11-11 17:44:00,
2013-11-11 12:49:00,46.1,32.1,30.05,SW,236,2.7,3.5,58,0.00,FEW,,0.00,429.4,WeatherDisplay:10.37,2013-11-11 17:49:00,
2013-11-11 12:54:00,46.3,32.3,30.05,SW,236,1.6,3.5,58,0.00,SCT,,0.00,262.2,WeatherDisplay:10.37,2013-11-11 17:54:00,
2013-11-11 12:59:00,46.3,32.3,30.04,WSW,246,3.1,3.5,58,0.00,BKN,,0.00,249.7,WeatherDisplay:10.37,2013-11-11 17:59:00,
2013-11-11 13:04:00,46.2,32.2,30.04,WSW,246,1.8,3.5,58,0.00,BKN,,0.00,209.1,WeatherDisplay:10.37,2013-11-11 18:04:00,
2013-11-11 13:09:00,46.3,32.7,30.03,SSW,199,3.5,6.0,59,0.00,BKN,,0.00,176.3,WeatherDisplay:10.37,2013-11-11 18:09:00,
2013-11-11 13:14:00,46.1,32.1,30.03,SSW,200,2.8,4.0,58,0.00,BKN,,0.00,188.7,WeatherDisplay:10.37,2013-11-11 18:14:00,
2013-11-11 13:19:00,46.1,32.1,30.03,SSW,200,2.4,4.0,58,0.00,BKN,,0.00,146.9,WeatherDisplay:10.37,2013-11-11 18:19:00,
2013-11-11 13:24:00,46.0,32.0,30.02,SSW,198,0.6,3.5,58,0.00,BKN,,0.00,154.8,WeatherDisplay:10.37,2013-11-11 18:24:00,
2013-11-11 13:29:00,46.0,32.0,30.02,SSW,198,0.9,3.5,58,0.00,BKN,,0.00,168.4,WeatherDisplay:10.37,2013-11-11 18:29:00,
2013-11-11 13:34:00,46.1,32.1,30.02,SSW,198,1.2,3.0,58,0.00,BKN,,0.00,151.4,WeatherDisplay:10.37,2013-11-11 18:34:00,
2013-11-11 13:39:00,46.2,31.4,30.01,SSW,198,3.2,3.5,56,0.00,BKN,,0.00,133.3,WeatherDisplay:10.37,2013-11-11 18:39:00,
2013-11-11 13:44:00,46.2,31.8,30.01,SSW,198,2.2,3.5,57,0.00,BKN,,0.00,135.6,WeatherDisplay:10.37,2013-11-11 18:44:00,
2013-11-11 13:49:00,46.3,32.3,30.01,SW,224,2.3,5.8,58,0.00,OVC,,0.00,127.7,WeatherDisplay:10.37,2013-11-11 18:49:00,
2013-11-11 13:54:00,46.2,31.8,30.00,SW,225,2.6,3.5,57,0.00,OVC,,0.00,110.7,WeatherDisplay:10.37,2013-11-11 18:54:00,
2013-11-11 13:59:00,46.2,31.4,30.00,SW,225,0.1,1.2,56,0.00,OVC,,0.00,99.4,WeatherDisplay:10.37,2013-11-11 18:59:00,
2013-11-11 14:04:00,46.2,30.9,30.00,SW,225,0.0,1.2,55,0.00,OVC,,0.00,110.7,WeatherDisplay:10.37,2013-11-11 19:04:00,
2013-11-11 14:09:00,46.3,31.9,30.00,SW,227,0.5,2.3,57,0.00,OVC,,0.00,117.5,WeatherDisplay:10.37,2013-11-11 19:09:00,
2013-11-11 14:14:00,46.4,31.1,30.00,SW,227,1.6,3.5,55,0.00,OVC,,0.00,85.9,WeatherDisplay:10.37,2013-11-11 19:14:00,
2013-11-11 14:19:00,46.4,31.5,30.00,SW,227,2.2,3.5,56,0.00,OVC,,0.00,79.1,WeatherDisplay:10.37,2013-11-11 19:19:00,
2013-11-11 14:24:00,46.3,31.9,30.00,SW,217,2.1,5.8,57,0.00,OVC,,0.00,83.6,WeatherDisplay:10.37,2013-11-11 19:24:00,
2013-11-11 14:30:00,46.3,31.9,30.00,SW,217,0.0,1.2,57,0.00,OVC,,0.00,115.3,WeatherDisplay:10.37,2013-11-11 19:30:00,
2013-11-11 14:35:00,46.4,31.1,30.00,SSW,212,2.8,4.0,55,0.00,OVC,,0.00,110.7,WeatherDisplay:10.37,2013-11-11 19:35:00,
2013-11-11 14:40:00,46.4,32.0,30.00,SSW,204,3.4,6.9,57,0.00,BKN,,0.00,115.3,WeatherDisplay:10.37,2013-11-11 19:40:00,
2013-11-11 14:45:00,46.5,31.6,30.00,SSW,210,3.7,6.9,56,0.00,BKN,,0.00,107.3,WeatherDisplay:10.37,2013-11-11 19:45:00,
2013-11-11 14:50:00,46.4,31.5,30.00,SSW,207,3.0,6.9,56,0.00,OVC,,0.00,94.9,WeatherDisplay:10.37,2013-11-11 19:50:00,
2013-11-11 14:55:00,46.5,32.1,30.00,SSW,207,0.8,1.2,57,0.00,OVC,,0.00,101.7,WeatherDisplay:10.37,2013-11-11 19:55:00,
2013-11-11 15:00:00,46.5,31.6,29.99,SSW,207,4.1,5.8,56,0.00,BKN,,0.00,113.0,WeatherDisplay:10.37,2013-11-11 20:00:00,
2013-11-11 15:05:00,46.5,31.2,29.99,SSW,213,2.8,8.1,55,0.00,BKN,,0.00,117.5,WeatherDisplay:10.37,2013-11-11 20:05:00,
2013-11-11 15:10:00,46.4,31.1,29.99,SW,217,3.8,4.6,55,0.00,BKN,,0.00,85.9,WeatherDisplay:10.37,2013-11-11 20:10:00,
2013-11-11 15:15:00,46.4,31.1,29.99,SSW,194,5.8,9.2,55,0.00,BKN,,0.00,71.2,WeatherDisplay:10.37,2013-11-11 20:15:00,
2013-11-11 15:20:00,46.3,31.0,29.99,SW,219,6.2,8.1,55,0.00,BKN,,0.00,61.0,WeatherDisplay:10.37,2013-11-11 20:20:00,
2013-11-11 15:25:00,46.2,31.4,29.99,SW,219,2.6,3.5,56,0.00,BKN,,0.00,59.9,WeatherDisplay:10.37,2013-11-11 20:25:00,
2013-11-11 15:30:00,46.2,31.4,29.99,SW,219,4.2,4.6,56,0.00,BKN,,0.00,70.1,WeatherDisplay:10.37,2013-11-11 20:30:00,
2013-11-11 15:35:00,46.1,30.4,29.99,SSW,211,3.3,7.0,54,0.00,BKN,,0.00,55.4,WeatherDisplay:10.37,2013-11-11 20:35:00,
2013-11-11 15:40:00,46.1,31.3,29.98,SSW,202,2.6,4.6,56,0.00,BKN,,0.00,39.5,WeatherDisplay:10.37,2013-11-11 20:40:00,
2013-11-11 15:45:00,46.0,30.7,29.98,South,178,2.9,5.8,55,0.00,BKN,,0.00,28.3,WeatherDisplay:10.37,2013-11-11 20:45:00,
2013-11-11 15:50:00,45.8,30.1,29.97,South,190,1.9,4.6,54,0.00,BKN,,0.00,18.1,WeatherDisplay:10.37,2013-11-11 20:50:00,
2013-11-11 15:55:00,45.8,30.5,29.97,SSW,198,1.6,5.8,55,0.00,BKN,,0.00,13.6,WeatherDisplay:10.37,2013-11-11 20:55:00,
2013-11-11 16:00:00,45.7,30.4,29.97,SSW,198,3.4,5.8,55,0.00,BKN,,0.00,12.4,WeatherDisplay:10.37,2013-11-11 21:00:00,
2013-11-11 16:05:00,45.6,30.3,29.97,SSW,195,1.4,5.8,55,0.00,BKN,,0.00,12.4,WeatherDisplay:10.37,2013-11-11 21:05:00,
2013-11-11 16:10:00,45.5,30.3,29.97,SSW,192,1.5,2.3,55,0.00,BKN,,0.00,7.9,WeatherDisplay:10.37,2013-11-11 21:10:00,
2013-11-11 16:15:00,45.4,30.6,29.97,SSW,210,1.9,5.8,56,0.00,BKN,,0.00,0.0,WeatherDisplay:10.37,2013-11-11 21:15:00,
2013-11-11 16:20:00,45.4,30.6,29.97,SSW,211,2.1,4.0,56,0.00,BKN,,0.00,0.0,WeatherDisplay:10.37,2013-11-11 21:20:00,
2013-11-11 16:25:00,45.3,30.5,29.97,SSW,213,4.7,9.2,56,0.00,BKN,,0.00,0.0,WeatherDisplay:10.37,2013-11-11 21:25:00,
2013-11-11 16:30:00,45.3,30.5,29.97,SSW,211,3.8,9.2,56,0.00,BKN,,0.00,0.0,WeatherDisplay:10.37,2013-11-11 21:30:00,
2013-11-11 16:35:00,45.5,29.8,29.97,SSW,212,3.5,5.0,54,0.00,BKN,,0.00,0.0,WeatherDisplay:10.37,2013-11-11 21:35:00,
2013-11-11 16:40:00,45.7,29.5,29.97,SW,231,4.9,6.9,53,0.00,BKN,,0.00,0.0,WeatherDisplay:10.37,2013-11-11 21:40:00,
2013-11-11 16:45:00,45.8,29.6,29.97,SW,216,1.8,3.5,53,0.00,BKN,,0.00,0.0,WeatherDisplay:10.37,2013-11-11 21:45:00,
2013-11-11 16:50:00,45.8,29.6,29.96,SSW,213,3.9,5.8,53,0.00,BKN,,0.00,0.0,WeatherDisplay:10.37,2013-11-11 21:50:00,
2013-11-11 16:55:00,45.9,29.7,29.96,SSW,192,3.8,8.1,53,0.00,BKN,,0.00,0.0,WeatherDisplay:10.37,2013-11-11 21:55:00,
2013-11-11 17:00:00,46.0,29.8,29.97,SSW,201,1.6,3.5,53,0.00,BKN,,0.00,0.0,WeatherDisplay:10.37,2013-11-11 22:00:00,
2013-11-11 17:05:00,45.9,30.6,29.97,South,181,0.6,3.5,55,0.00,BKN,,0.00,0.0,WeatherDisplay:10.37,2013-11-11 22:05:00,
2013-11-11 17:11:00,45.8,30.5,29.97,South,181,1.0,2.3,55,0.00,BKN,,0.00,0.0,WeatherDisplay:10.37,2013-11-11 22:11:00,
2013-11-11 17:16:00,45.7,30.4,29.97,South,189,3.3,4.6,55,0.00,BKN,,0.00,0.0,WeatherDisplay:10.37,2013-11-11 22:16:00,
2013-11-11 17:21:00,45.7,30.4,29.97,SW,216,1.7,3.0,55,0.00,BKN,,0.00,0.0,WeatherDisplay:10.37,2013-11-11 22:21:00,
2013-11-11 17:26:00,45.8,29.6,29.96,SW,217,3.4,4.6,53,0.00,BKN,,0.00,0.0,WeatherDisplay:10.37,2013-11-11 22:26:00,
2013-11-11 17:31:00,45.8,29.6,29.96,SW,217,3.3,4.6,53,0.00,BKN,,0.00,0.0,WeatherDisplay:10.37,2013-11-11 22:31:00,
2013-11-11 17:36:00,45.8,30.1,29.96,SW,217,0.4,2.3,54,0.00,BKN,,0.00,0.0,WeatherDisplay:10.37,2013-11-11 22:36:00,
2013-11-11 17:41:00,45.8,30.1,29.96,SW,217,0.7,3.5,54,0.00,BKN,,0.00,0.0,WeatherDisplay:10.37,2013-11-11 22:41:00,
2013-11-11 17:46:00,45.8,30.5,29.96,SW,216,1.0,4.0,55,0.00,BKN,,0.00,0.0,WeatherDisplay:10.37,2013-11-11 22:46:00,
2013-11-11 17:51:00,45.7,30.4,29.96,SW,216,0.4,1.2,55,0.00,BKN,,0.00,0.0,WeatherDisplay:10.37,2013-11-11 22:51:00,
2013-11-11 17:56:00,45.7,30.4,29.96,SW,214,1.4,4.6,55,0.00,BKN,,0.00,0.0,WeatherDisplay:10.37,2013-11-11 22:56:00,
2013-11-11 18:01:00,45.6,30.8,29.95,South,187,3.9,5.8,56,0.00,BKN,,0.00,0.0,WeatherDisplay:10.37,2013-11-11 23:01:00,
2013-11-11 18:06:00,45.6,30.3,29.95,South,182,4.9,6.9,55,0.00,BKN,,0.00,0.0,WeatherDisplay:10.37,2013-11-11 23:06:00,
2013-11-11 18:11:00,45.6,30.8,29.96,South,188,3.0,3.5,56,0.00,BKN,,0.00,0.0,WeatherDisplay:10.37,2013-11-11 23:11:00,
2013-11-11 18:16:00,45.5,30.7,29.95,South,187,1.4,4.6,56,0.00,BKN,,0.00,0.0,WeatherDisplay:10.37,2013-11-11 23:16:00,
2013-11-11 18:21:00,45.5,30.7,29.95,South,191,3.8,5.8,56,0.00,BKN,,0.00,0.0,WeatherDisplay:10.37,2013-11-11 23:21:00,
2013-11-11 18:26:00,45.6,30.8,29.95,SW,219,7.9,16.1,56,0.00,BKN,,0.00,0.0,WeatherDisplay:10.37,2013-11-11 23:26:00,
2013-11-11 18:31:00,46.1,29.9,29.95,South,174,3.3,6.9,53,0.00,BKN,,0.00,0.0,WeatherDisplay:10.37,2013-11-11 23:31:00,
2013-11-11 18:36:00,46.2,30.0,29.95,SSW,203,3.9,6.9,53,0.00,BKN,,0.00,0.0,WeatherDisplay:10.37,2013-11-11 23:36:00,
2013-11-11 18:41:00,46.1,30.4,29.95,South,187,3.7,6.9,54,0.00,BKN,,0.00,0.0,WeatherDisplay:10.37,2013-11-11 23:41:00,
2013-11-11 18:46:00,46.0,30.3,29.94,South,190,5.1,9.2,54,0.00,BKN,,0.00,0.0,WeatherDisplay:10.37,2013-11-11 23:46:00,
2013-11-11 18:51:00,45.9,30.2,29.94,SSW,197,6.0,10.4,54,0.00,BKN,,0.00,0.0,WeatherDisplay:10.37,2013-11-11 23:51:00,
2013-11-11 18:56:00,45.9,30.6,29.94,South,190,4.8,8.0,55,0.00,BKN,,0.00,0.0,WeatherDisplay:10.37,2013-11-11 23:56:00,
2013-11-11 19:01:00,45.8,30.5,29.94,South,185,5.1,9.2,55,0.00,BKN,,0.00,0.0,WeatherDisplay:10.37,2013-11-12 00:01:00,
2013-11-11 19:06:00,45.8,30.5,29.94,South,187,3.5,4.6,55,0.00,BKN,,0.00,0.0,WeatherDisplay:10.37,2013-11-12 00:06:00,
2013-11-11 19:11:00,45.7,30.9,29.94,South,188,5.1,7.0,56,0.00,BKN,,0.00,0.0,WeatherDisplay:10.37,2013-11-12 00:11:00,
2013-11-11 19:16:00,45.6,30.8,29.94,SSW,200,2.6,5.8,56,0.00,BKN,,0.00,0.0,WeatherDisplay:10.37,2013-11-12 00:16:00,
2013-11-11 19:21:00,45.5,30.3,29.94,South,187,1.5,5.8,55,0.00,BKN,,0.00,0.0,WeatherDisplay:10.37,2013-11-12 00:21:00,
2013-11-11 19:26:00,45.5,30.7,29.93,SW,215,3.8,6.9,56,0.00,BKN,,0.00,0.0,WeatherDisplay:10.37,2013-11-12 00:26:00,
2013-11-11 19:31:00,45.5,30.7,29.93,SSW,205,3.5,3.5,56,0.00,BKN,,0.00,0.0,WeatherDisplay:10.37,2013-11-12 00:31:00,
2013-11-11 19:36:00,45.5,31.1,29.93,SSW,196,1.6,4.0,57,0.00,BKN,,0.00,0.0,WeatherDisplay:10.37,2013-11-12 00:36:00,
2013-11-11 19:41:00,45.5,31.1,29.93,South,191,1.1,3.5,57,0.00,BKN,,0.00,0.0,WeatherDisplay:10.37,2013-11-12 00:41:00,
2013-11-11 19:46:00,45.4,30.6,29.93,SSW,193,2.2,3.5,56,0.00,BKN,,0.00,0.0,WeatherDisplay:10.37,2013-11-12 00:46:00,
2013-11-11 19:51:00,45.5,31.1,29.93,SSW,201,2.5,3.5,57,0.00,BKN,,0.00,0.0,WeatherDisplay:10.37,2013-11-12 00:51:00,
2013-11-11 19:56:00,45.5,31.1,29.93,SSW,210,2.9,5.0,57,0.00,BKN,,0.00,0.0,WeatherDisplay:10.37,2013-11-12 00:56:00,
2013-11-11 20:01:00,45.6,30.8,29.93,SSW,211,2.6,4.0,56,0.00,BKN,,0.00,0.0,WeatherDisplay:10.37,2013-11-12 01:01:00,
2013-11-11 20:06:00,45.6,30.8,29.93,SSW,211,2.9,3.5,56,0.00,BKN,,0.00,0.0,WeatherDisplay:10.37,2013-11-12 01:06:00,
2013-11-11 20:11:00,45.6,30.8,29.93,SSW,211,1.4,3.5,56,0.00,BKN,,0.00,0.0,WeatherDisplay:10.37,2013-11-12 01:11:00,
2013-11-11 20:16:00,45.6,31.2,29.93,SSW,198,2.5,5.8,57,0.00,BKN,,0.00,0.0,WeatherDisplay:10.37,2013-11-12 01:16:00,
2013-11-11 20:21:00,45.6,31.2,29.93,South,190,3.1,4.6,57,0.00,BKN,,0.00,0.0,WeatherDisplay:10.37,2013-11-12 01:21:00,
2013-11-11 20:26:00,45.5,31.1,29.93,South,190,1.3,3.5,57,0.00,BKN,,0.00,0.0,WeatherDisplay:10.37,2013-11-12 01:26:00,
2013-11-11 20:31:00,45.4,31.5,29.93,SSW,195,3.6,6.9,58,0.00,BKN,,0.00,0.0,WeatherDisplay:10.37,2013-11-12 01:31:00,
2013-11-11 20:36:00,45.5,31.1,29.93,SW,217,1.8,3.5,57,0.00,BKN,,0.00,0.0,WeatherDisplay:10.37,2013-11-12 01:36:00,
2013-11-11 20:41:00,45.5,31.6,29.93,SW,215,2.2,3.5,58,0.00,BKN,,0.00,0.0,WeatherDisplay:10.37,2013-11-12 01:41:00,
2013-11-11 20:46:00,45.5,31.6,29.93,SW,215,2.0,3.5,58,0.00,BKN,,0.00,0.0,WeatherDisplay:10.37,2013-11-12 01:46:00,
2013-11-11 20:51:00,45.4,31.9,29.93,SW,215,0.6,2.3,59,0.00,BKN,,0.00,0.0,WeatherDisplay:10.37,2013-11-12 01:51:00,
2013-11-11 20:56:00,45.4,31.5,29.93,SW,215,0.7,2.3,58,0.00,BKN,,0.00,0.0,WeatherDisplay:10.37,2013-11-12 01:56:00,
2013-11-11 21:01:00,45.3,31.8,29.93,SW,215,0.0,2.3,59,0.00,BKN,,0.00,0.0,WeatherDisplay:10.37,2013-11-12 02:01:00,
2013-11-11 21:06:00,45.4,31.9,29.93,SW,215,0.1,2.0,59,0.00,BKN,,0.00,0.0,WeatherDisplay:10.37,2013-11-12 02:06:00,
2013-11-11 21:11:00,45.4,31.5,29.93,SW,215,1.0,3.5,58,0.00,BKN,,0.00,0.0,WeatherDisplay:10.37,2013-11-12 02:11:00,
2013-11-11 21:17:00,45.4,31.9,29.93,SW,215,0.0,0.0,59,0.00,BKN,,0.00,0.0,WeatherDisplay:10.37,2013-11-12 02:17:00,
2013-11-11 21:22:00,45.3,32.2,29.93,SW,215,0.7,3.5,60,0.00,BKN,,0.00,0.0,WeatherDisplay:10.37,2013-11-12 02:22:00,
2013-11-11 21:27:00,45.2,31.7,29.93,SW,215,2.5,3.5,59,0.00,BKN,,0.00,0.0,WeatherDisplay:10.37,2013-11-12 02:27:00,
2013-11-11 21:32:00,45.4,31.5,29.92,SW,225,3.5,4.6,58,0.00,BKN,,0.00,0.0,WeatherDisplay:10.37,2013-11-12 02:32:00,
2013-11-11 21:37:00,45.6,31.7,29.92,WSW,249,5.0,8.1,58,0.00,BKN,,0.00,0.0,WeatherDisplay:10.37,2013-11-12 02:37:00,
2013-11-11 21:42:00,45.8,31.0,29.92,WSW,245,3.2,4.6,56,0.00,BKN,,0.00,0.0,WeatherDisplay:10.37,2013-11-12 02:42:00,
2013-11-11 21:47:00,45.9,31.5,29.92,WSW,245,3.2,5.0,57,0.00,BKN,,0.00,0.0,WeatherDisplay:10.37,2013-11-12 02:47:00,
2013-11-11 21:52:00,45.8,31.4,29.92,WSW,245,2.7,3.5,57,0.00,BKN,,0.00,0.0,WeatherDisplay:10.37,2013-11-12 02:52:00,
2013-11-11 21:57:00,45.7,31.8,29.92,WSW,245,0.9,3.5,58,0.00,BKN,,0.00,0.0,WeatherDisplay:10.37,2013-11-12 02:57:00,
2013-11-11 22:02:00,45.4,31.9,29.92,WSW,243,1.0,3.5,59,0.00,BKN,,0.00,0.0,WeatherDisplay:10.37,2013-11-12 03:02:00,
2013-11-11 22:07:00,45.3,31.8,29.92,WSW,243,0.5,3.5,59,0.00,BKN,,0.00,0.0,WeatherDisplay:10.37,2013-11-12 03:07:00,
2013-11-11 22:12:00,45.2,31.7,29.92,WSW,243,0.5,2.3,59,0.00,BKN,,0.00,0.0,WeatherDisplay:10.37,2013-11-12 03:12:00,
2013-11-11 22:17:00,45.2,31.7,29.92,WSW,243,0.6,2.3,59,0.00,BKN,,0.00,0.0,WeatherDisplay:10.37,2013-11-12 03:17:00,
2013-11-11 22:22:00,45.1,31.6,29.92,WSW,243,0.0,0.0,59,0.00,BKN,,0.00,0.0,WeatherDisplay:10.37,2013-11-12 03:22:00,
2013-11-11 22:27:00,45.0,31.9,29.92,WSW,243,0.6,2.3,60,0.00,BKN,,0.00,0.0,WeatherDisplay:10.37,2013-11-12 03:27:00,
2013-11-11 22:32:00,44.9,31.8,29.92,WSW,243,1.1,2.3,60,0.00,BKN,,0.00,0.0,WeatherDisplay:10.37,2013-11-12 03:32:00,
2013-11-11 22:37:00,44.7,31.7,29.92,WSW,243,0.6,2.3,60,0.00,BKN,,0.00,0.0,WeatherDisplay:10.37,2013-11-12 03:37:00,
2013-11-11 22:42:00,44.7,31.7,29.92,WSW,243,2.1,3.5,60,0.00,BKN,,0.00,0.0,WeatherDisplay:10.37,2013-11-12 03:42:00,
2013-11-11 22:47:00,44.7,32.1,29.92,WSW,243,0.6,2.3,61,0.00,BKN,,0.00,0.0,WeatherDisplay:10.37,2013-11-12 03:47:00,
2013-11-11 22:52:00,44.6,31.6,29.92,WSW,243,0.3,2.0,60,0.00,BKN,,0.00,0.0,WeatherDisplay:10.37,2013-11-12 03:52:00,
2013-11-11 22:57:00,44.6,32.0,29.92,WSW,243,1.4,3.0,61,0.00,BKN,,0.00,0.0,WeatherDisplay:10.37,2013-11-12 03:57:00,
2013-11-11 23:02:00,44.6,31.6,29.92,WSW,243,1.8,3.5,60,0.00,BKN,,0.00,0.0,WeatherDisplay:10.37,2013-11-12 04:02:00,
2013-11-11 23:07:00,44.5,31.5,29.92,West,259,5.7,10.4,60,0.00,BKN,,0.00,0.0,WeatherDisplay:10.37,2013-11-12 04:07:00,
2013-11-11 23:12:00,44.8,32.2,29.92,West,266,4.6,6.9,61,0.00,BKN,,0.00,0.0,WeatherDisplay:10.37,2013-11-12 04:12:00,
2013-11-11 23:17:00,45.0,31.9,29.92,West,271,7.7,10.4,60,0.00,BKN,,0.00,0.0,WeatherDisplay:10.37,2013-11-12 04:17:00,
2013-11-11 23:22:00,45.3,32.2,29.92,WNW,286,8.0,9.2,60,0.00,BKN,,0.00,0.0,WeatherDisplay:10.37,2013-11-12 04:22:00,
2013-11-11 23:27:00,45.4,32.7,29.93,West,279,7.6,9.2,61,0.00,BKN,,0.00,0.0,WeatherDisplay:10.37,2013-11-12 04:27:00,
2013-11-11 23:32:00,45.4,32.7,29.92,West,278,7.4,11.5,61,0.00,BKN,,0.00,0.0,WeatherDisplay:10.37,2013-11-12 04:32:00,
2013-11-11 23:37:00,45.4,33.1,29.92,WNW,284,8.0,11.5,62,0.00,BKN,,0.00,0.0,WeatherDisplay:10.37,2013-11-12 04:37:00,
2013-11-11 23:42:00,45.4,33.5,29.93,WNW,282,6.3,9.0,63,0.00,BKN,,0.00,0.0,WeatherDisplay:10.37,2013-11-12 04:42:00,
2013-11-11 23:47:00,45.3,33.4,29.93,West,280,8.0,9.2,63,0.00,BKN,,0.00,0.0,WeatherDisplay:10.37,2013-11-12 04:47:00,
2013-11-11 23:52:00,45.2,33.7,29.93,WNW,284,6.0,7.0,64,0.00,BKN,,0.00,0.0,WeatherDisplay:10.37,2013-11-12 04:52:00,
2013-11-11 23:57:00,45.1,34.0,29.93,WNW,290,6.2,10.4,65,0.00,BKN,,0.00,0.0,WeatherDisplay:10.37,2013-11-12 04:57:00,